Year,Month,Day,Hour,Minute,Value (Times are PST for windgust in km/hr)
2015,08,29,00,00,6.40
2015,08,29,00,01,8.10
2015,08,29,00,02,8.10
2015,08,29,00,03,6.40
2015,08,29,00,04,8.10
2015,08,29,00,05,4.80
2015,08,29,00,06,8.10
2015,08,29,00,07,11.30
2015,08,29,00,08,6.40
2015,08,29,00,09,4.80
2015,08,29,00,10,8.10
2015,08,29,00,11,6.40
2015,08,29,00,12,16.10
2015,08,29,00,13,14.50
2015,08,29,00,14,8.10
2015,08,29,00,15,9.60
2015,08,29,00,16,3.20
2015,08,29,00,17,3.20
2015,08,29,00,18,9.60
2015,08,29,00,19,6.40
2015,08,29,00,20,14.50
2015,08,29,00,21,6.40
2015,08,29,00,22,4.80
2015,08,29,00,23,6.40
2015,08,29,00,24,14.50
2015,08,29,00,25,9.60
2015,08,29,00,26,8.10
2015,08,29,00,27,11.30
2015,08,29,00,28,11.30
2015,08,29,00,29,9.60
2015,08,29,00,30,14.50
2015,08,29,00,31,8.10
2015,08,29,00,32,4.80
2015,08,29,00,33,3.20
2015,08,29,00,34,8.10
2015,08,29,00,35,6.40
2015,08,29,00,36,14.50
2015,08,29,00,37,8.10
2015,08,29,00,38,4.80
2015,08,29,00,39,12.90
2015,08,29,00,40,14.50
2015,08,29,00,41,9.60
2015,08,29,00,42,8.10
2015,08,29,00,43,6.40
2015,08,29,00,44,9.60
2015,08,29,00,45,14.50
2015,08,29,00,46,6.40
2015,08,29,00,47,16.10
2015,08,29,00,48,6.40
2015,08,29,00,49,8.10
2015,08,29,00,50,4.80
2015,08,29,00,51,9.60
2015,08,29,00,52,6.40
2015,08,29,00,53,4.80
2015,08,29,00,54,8.10
2015,08,29,00,55,6.40
2015,08,29,00,56,4.80
2015,08,29,00,57,4.80
2015,08,29,00,58,3.20
2015,08,29,00,59,9.60
2015,08,29,01,00,9.60
2015,08,29,01,01,6.40
2015,08,29,01,02,12.90
2015,08,29,01,03,9.60
2015,08,29,01,04,4.80
2015,08,29,01,05,6.40
2015,08,29,01,06,6.40
2015,08,29,01,07,12.90
2015,08,29,01,08,9.60
2015,08,29,01,09,14.50
2015,08,29,01,10,14.50
2015,08,29,01,11,12.90
2015,08,29,01,12,11.30
2015,08,29,01,13,8.10
2015,08,29,01,14,8.10
2015,08,29,01,15,4.80
2015,08,29,01,16,11.30
2015,08,29,01,17,9.60
2015,08,29,01,18,4.80
2015,08,29,01,19,8.10
2015,08,29,01,20,6.40
2015,08,29,01,21,8.10
2015,08,29,01,22,4.80
2015,08,29,01,23,9.60
2015,08,29,01,24,11.30
2015,08,29,01,25,11.30
2015,08,29,01,26,8.10
2015,08,29,01,27,11.30
2015,08,29,01,28,11.30
2015,08,29,01,29,9.60
2015,08,29,01,30,6.40
2015,08,29,01,31,14.50
2015,08,29,01,32,14.50
2015,08,29,01,33,11.30
2015,08,29,01,34,9.60
2015,08,29,01,35,11.30
2015,08,29,01,36,3.20
2015,08,29,01,37,6.40
2015,08,29,01,38,8.10
2015,08,29,01,39,6.40
2015,08,29,01,40,4.80
2015,08,29,01,41,1.60
2015,08,29,01,42,3.20
2015,08,29,01,43,8.10
2015,08,29,01,44,4.80
2015,08,29,01,45,6.40
2015,08,29,01,46,4.80
2015,08,29,01,47,3.20
2015,08,29,01,48,6.40
2015,08,29,01,50,4.80
2015,08,29,01,51,3.20
2015,08,29,01,52,6.40
2015,08,29,01,53,4.80
2015,08,29,01,54,1.60
2015,08,29,01,55,8.10
2015,08,29,01,56,6.40
2015,08,29,01,57,1.60
2015,08,29,01,58,1.60
2015,08,29,01,59,3.20
2015,08,29,02,00,1.60
2015,08,29,02,02,6.40
2015,08,29,02,03,3.20
2015,08,29,02,04,3.20
2015,08,29,02,05,4.80
2015,08,29,02,06,4.80
2015,08,29,02,07,9.60
2015,08,29,02,08,6.40
2015,08,29,02,09,9.60
2015,08,29,02,10,8.10
2015,08,29,02,11,9.60
2015,08,29,02,12,14.50
2015,08,29,02,13,14.50
2015,08,29,02,14,8.10
2015,08,29,02,15,11.30
2015,08,29,02,16,9.60
2015,08,29,02,17,6.40
2015,08,29,02,18,9.60
2015,08,29,02,19,4.80
2015,08,29,02,20,6.40
2015,08,29,02,21,6.40
2015,08,29,02,22,9.60
2015,08,29,02,23,11.30
2015,08,29,02,24,8.10
2015,08,29,02,25,1.60
2015,08,29,02,26,1.60
2015,08,29,02,27,6.40
2015,08,29,02,28,4.80
2015,08,29,02,29,8.10
2015,08,29,02,30,9.60
2015,08,29,02,31,16.10
2015,08,29,02,32,17.70
2015,08,29,02,33,17.70
2015,08,29,02,34,17.70
2015,08,29,02,35,16.10
2015,08,29,02,36,16.10
2015,08,29,02,37,12.90
2015,08,29,02,38,11.30
2015,08,29,02,39,9.60
2015,08,29,02,40,8.10
2015,08,29,02,41,8.10
2015,08,29,02,42,6.40
2015,08,29,02,43,8.10
2015,08,29,02,44,11.30
2015,08,29,02,45,14.50
2015,08,29,02,46,12.90
2015,08,29,02,47,12.90
2015,08,29,02,48,14.50
2015,08,29,02,49,12.90
2015,08,29,02,50,17.70
2015,08,29,02,51,4.80
2015,08,29,02,52,8.10
2015,08,29,02,53,9.60
2015,08,29,02,54,6.40
2015,08,29,02,55,8.10
2015,08,29,02,56,17.70
2015,08,29,02,57,9.60
2015,08,29,02,58,19.30
2015,08,29,02,59,16.10
2015,08,29,03,00,11.30
2015,08,29,03,01,11.30
2015,08,29,03,02,9.60
2015,08,29,03,03,14.50
2015,08,29,03,04,9.60
2015,08,29,03,05,6.40
2015,08,29,03,06,11.30
2015,08,29,03,07,14.50
2015,08,29,03,08,16.10
2015,08,29,03,09,19.30
2015,08,29,03,10,17.70
2015,08,29,03,11,17.70
2015,08,29,03,12,11.30
2015,08,29,03,13,8.10
2015,08,29,03,14,9.60
2015,08,29,03,15,16.10
2015,08,29,03,16,17.70
2015,08,29,03,17,16.10
2015,08,29,03,18,11.30
2015,08,29,03,19,14.50
2015,08,29,03,20,16.10
2015,08,29,03,21,19.30
2015,08,29,03,22,16.10
2015,08,29,03,23,14.50
2015,08,29,03,24,19.30
2015,08,29,03,25,17.70
2015,08,29,03,26,17.70
2015,08,29,03,27,14.50
2015,08,29,03,28,8.10
2015,08,29,03,29,9.60
2015,08,29,03,30,16.10
2015,08,29,03,31,9.60
2015,08,29,03,32,9.60
2015,08,29,03,33,6.40
2015,08,29,03,34,4.80
2015,08,29,03,35,6.40
2015,08,29,03,36,8.10
2015,08,29,03,37,9.60
2015,08,29,03,38,6.40
2015,08,29,03,39,4.80
2015,08,29,03,40,14.50
2015,08,29,03,41,9.60
2015,08,29,03,42,11.30
2015,08,29,03,43,17.70
2015,08,29,03,44,9.60
2015,08,29,03,45,12.90
2015,08,29,03,46,6.40
2015,08,29,03,47,8.10
2015,08,29,03,48,11.30
2015,08,29,03,49,9.60
2015,08,29,03,50,4.80
2015,08,29,03,51,9.60
2015,08,29,03,52,14.50
2015,08,29,03,53,16.10
2015,08,29,03,54,8.10
2015,08,29,03,55,16.10
2015,08,29,03,56,16.10
2015,08,29,03,57,11.30
2015,08,29,03,58,11.30
2015,08,29,03,59,8.10
2015,08,29,04,00,11.30
2015,08,29,04,01,9.60
2015,08,29,04,02,8.10
2015,08,29,04,03,8.10
2015,08,29,04,04,11.30
2015,08,29,04,05,6.40
2015,08,29,04,06,9.60
2015,08,29,04,07,14.50
2015,08,29,04,08,11.30
2015,08,29,04,09,8.10
2015,08,29,04,10,8.10
2015,08,29,04,11,12.90
2015,08,29,04,12,9.60
2015,08,29,04,13,14.50
2015,08,29,04,14,19.30
2015,08,29,04,15,16.10
2015,08,29,04,16,14.50
2015,08,29,04,17,11.30
2015,08,29,04,18,14.50
2015,08,29,04,19,16.10
2015,08,29,04,20,9.60
2015,08,29,04,21,14.50
2015,08,29,04,22,16.10
2015,08,29,04,23,6.40
2015,08,29,04,24,16.10
2015,08,29,04,25,9.60
2015,08,29,04,26,11.30
2015,08,29,04,27,24.20
2015,08,29,04,28,19.30
2015,08,29,04,29,17.70
2015,08,29,04,30,16.10
2015,08,29,04,31,17.70
2015,08,29,04,32,20.90
2015,08,29,04,33,17.70
2015,08,29,04,34,17.70
2015,08,29,04,35,17.70
2015,08,29,04,36,11.30
2015,08,29,04,37,11.30
2015,08,29,04,38,14.50
2015,08,29,04,39,14.50
2015,08,29,04,40,9.60
2015,08,29,04,41,20.90
2015,08,29,04,42,11.30
2015,08,29,04,43,14.50
2015,08,29,04,44,9.60
2015,08,29,04,45,16.10
2015,08,29,04,46,17.70
2015,08,29,04,47,16.10
2015,08,29,04,48,9.60
2015,08,29,04,49,9.60
2015,08,29,04,50,11.30
2015,08,29,04,51,16.10
2015,08,29,04,52,11.30
2015,08,29,04,53,9.60
2015,08,29,04,54,17.70
2015,08,29,04,55,22.50
2015,08,29,04,56,19.30
2015,08,29,04,57,17.70
2015,08,29,04,58,9.60
2015,08,29,04,59,17.70
2015,08,29,05,00,19.30
2015,08,29,05,01,22.50
2015,08,29,05,02,16.10
2015,08,29,05,03,22.50
2015,08,29,05,04,19.30
2015,08,29,05,05,22.50
2015,08,29,05,06,14.50
2015,08,29,05,07,12.90
2015,08,29,05,08,19.30
2015,08,29,05,09,11.30
2015,08,29,05,10,16.10
2015,08,29,05,11,11.30
2015,08,29,05,12,6.40
2015,08,29,05,13,9.60
2015,08,29,05,14,11.30
2015,08,29,05,15,9.60
2015,08,29,05,16,14.50
2015,08,29,05,17,14.50
2015,08,29,05,18,9.60
2015,08,29,05,19,16.10
2015,08,29,05,20,11.30
2015,08,29,05,21,11.30
2015,08,29,05,22,16.10
2015,08,29,05,23,11.30
2015,08,29,05,24,16.10
2015,08,29,05,25,11.30
2015,08,29,05,26,11.30
2015,08,29,05,27,11.30
2015,08,29,05,28,8.10
2015,08,29,05,29,8.10
2015,08,29,05,30,8.10
2015,08,29,05,31,8.10
2015,08,29,05,32,6.40
2015,08,29,05,33,3.20
2015,08,29,05,34,1.60
2015,08,29,05,35,4.80
2015,08,29,05,36,4.80
2015,08,29,05,37,1.60
2015,08,29,05,39,1.60
2015,08,29,05,40,6.40
2015,08,29,05,41,8.10
2015,08,29,05,42,8.10
2015,08,29,05,43,6.40
2015,08,29,05,44,6.40
2015,08,29,05,45,3.20
2015,08,29,05,46,3.20
2015,08,29,05,47,1.60
2015,08,29,05,48,1.60
2015,08,29,05,49,4.80
2015,08,29,05,50,8.10
2015,08,29,05,51,8.10
2015,08,29,05,52,11.30
2015,08,29,05,53,22.50
2015,08,29,05,54,25.70
2015,08,29,05,55,24.20
2015,08,29,05,56,22.50
2015,08,29,05,57,25.70
2015,08,29,05,58,20.90
2015,08,29,05,59,14.50
2015,08,29,06,00,12.90
2015,08,29,06,01,9.60
2015,08,29,06,02,16.10
2015,08,29,06,03,9.60
2015,08,29,06,04,8.10
2015,08,29,06,05,17.70
2015,08,29,06,06,12.90
2015,08,29,07,06,9.60
2015,08,29,07,07,17.70
2015,08,29,07,08,9.60
2015,08,29,07,09,9.60
2015,08,29,07,10,16.10
2015,08,29,07,11,20.90
2015,08,29,07,12,16.10
2015,08,29,07,13,14.50
2015,08,29,07,14,11.30
2015,08,29,07,15,17.70
2015,08,29,07,16,19.30
2015,08,29,07,17,16.10
2015,08,29,07,18,16.10
2015,08,29,07,19,17.70
2015,08,29,07,20,17.70
2015,08,29,07,21,11.30
2015,08,29,07,22,16.10
2015,08,29,07,23,17.70
2015,08,29,07,24,19.30
2015,08,29,07,25,17.70
2015,08,29,07,26,22.50
2015,08,29,07,27,19.30
2015,08,29,07,28,16.10
2015,08,29,07,29,22.50
2015,08,29,07,30,25.70
2015,08,29,07,31,16.10
2015,08,29,07,32,8.10
2015,08,29,07,33,8.10
2015,08,29,07,34,16.10
2015,08,29,07,35,19.30
2015,08,29,07,36,14.50
2015,08,29,07,37,17.70
2015,08,29,07,38,19.30
2015,08,29,07,39,25.70
2015,08,29,07,40,12.90
2015,08,29,07,41,19.30
2015,08,29,07,42,19.30
2015,08,29,07,43,14.50
2015,08,29,07,44,16.10
2015,08,29,07,45,8.10
2015,08,29,07,46,9.60
2015,08,29,07,47,17.70
2015,08,29,07,48,19.30
2015,08,29,07,49,16.10
2015,08,29,07,50,20.90
2015,08,29,07,51,29.00
2015,08,29,07,52,20.90
2015,08,29,07,53,22.50
2015,08,29,07,54,14.50
2015,08,29,07,55,19.30
2015,08,29,07,56,24.20
2015,08,29,07,57,19.30
2015,08,29,07,58,16.10
2015,08,29,07,59,11.30
2015,08,29,08,00,20.90
2015,08,29,08,01,20.90
2015,08,29,08,02,27.40
2015,08,29,08,03,17.70
2015,08,29,08,04,22.50
2015,08,29,08,05,16.10
2015,08,29,08,06,12.90
2015,08,29,08,07,8.10
2015,08,29,08,08,6.40
2015,08,29,08,09,16.10
2015,08,29,08,10,19.30
2015,08,29,08,11,14.50
2015,08,29,08,12,9.60
2015,08,29,08,13,9.60
2015,08,29,08,14,14.50
2015,08,29,08,15,17.70
2015,08,29,08,16,9.60
2015,08,29,08,17,16.10
2015,08,29,08,18,19.30
2015,08,29,08,19,17.70
2015,08,29,08,20,16.10
2015,08,29,08,21,19.30
2015,08,29,08,22,17.70
2015,08,29,08,23,17.70
2015,08,29,08,24,11.30
2015,08,29,08,25,17.70
2015,08,29,08,26,14.50
2015,08,29,08,27,16.10
2015,08,29,08,28,14.50
2015,08,29,08,29,14.50
2015,08,29,08,30,11.30
2015,08,29,08,31,12.90
2015,08,29,08,32,17.70
2015,08,29,08,33,16.10
2015,08,29,08,34,19.30
2015,08,29,08,35,16.10
2015,08,29,08,36,16.10
2015,08,29,08,37,16.10
2015,08,29,08,38,22.50
2015,08,29,08,39,8.10
2015,08,29,08,40,17.70
2015,08,29,08,41,20.90
2015,08,29,08,42,19.30
2015,08,29,08,43,27.40
2015,08,29,08,44,30.60
2015,08,29,08,45,27.40
2015,08,29,08,46,24.20
2015,08,29,08,47,25.70
2015,08,29,08,48,24.20
2015,08,29,08,49,16.10
2015,08,29,08,50,14.50
2015,08,29,08,51,6.40
2015,08,29,08,52,6.40
2015,08,29,08,53,9.60
2015,08,29,08,54,17.70
2015,08,29,08,55,22.50
2015,08,29,08,56,24.20
2015,08,29,08,57,20.90
2015,08,29,08,58,17.70
2015,08,29,08,59,19.30
2015,08,29,09,00,20.90
2015,08,29,09,01,14.50
2015,08,29,09,02,22.50
2015,08,29,09,03,11.30
2015,08,29,09,04,19.30
2015,08,29,09,05,14.50
2015,08,29,09,06,12.90
2015,08,29,09,07,17.70
2015,08,29,09,08,22.50
2015,08,29,09,09,29.00
2015,08,29,09,10,16.10
2015,08,29,09,11,9.60
2015,08,29,09,12,17.70
2015,08,29,09,13,27.40
2015,08,29,09,14,20.90
2015,08,29,09,15,11.30
2015,08,29,09,16,20.90
2015,08,29,09,17,16.10
2015,08,29,09,18,17.70
2015,08,29,09,19,17.70
2015,08,29,09,20,16.10
2015,08,29,09,21,20.90
2015,08,29,09,22,17.70
2015,08,29,09,23,16.10
2015,08,29,09,24,6.40
2015,08,29,09,25,19.30
2015,08,29,09,26,11.30
2015,08,29,09,27,16.10
2015,08,29,09,28,29.00
2015,08,29,09,29,17.70
2015,08,29,09,30,37.00
2015,08,29,09,31,35.40
2015,08,29,09,32,14.50
2015,08,29,09,33,20.90
2015,08,29,09,34,22.50
2015,08,29,09,35,40.20
2015,08,29,09,36,29.00
2015,08,29,09,37,27.40
2015,08,29,09,38,22.50
2015,08,29,09,39,17.70
2015,08,29,09,40,24.20
2015,08,29,09,41,27.40
2015,08,29,09,42,16.10
2015,08,29,09,43,22.50
2015,08,29,09,44,32.20
2015,08,29,09,45,16.10
2015,08,29,09,46,27.40
2015,08,29,09,47,37.00
2015,08,29,09,48,29.00
2015,08,29,09,49,14.50
2015,08,29,09,50,17.70
2015,08,29,09,51,17.70
2015,08,29,09,52,35.40
2015,08,29,09,53,20.90
2015,08,29,09,54,22.50
2015,08,29,09,55,24.20
2015,08,29,09,56,24.20
2015,08,29,09,57,27.40
2015,08,29,09,58,27.40
2015,08,29,09,59,20.90
2015,08,29,10,00,32.20
2015,08,29,10,01,40.20
2015,08,29,10,02,12.90
2015,08,29,10,03,32.20
2015,08,29,10,04,22.50
2015,08,29,10,05,22.50
2015,08,29,10,06,25.70
2015,08,29,10,07,24.20
2015,08,29,10,08,25.70
2015,08,29,10,09,20.90
2015,08,29,10,10,16.10
2015,08,29,10,11,19.30
2015,08,29,10,12,24.20
2015,08,29,10,13,20.90
2015,08,29,10,14,29.00
2015,08,29,10,15,22.50
2015,08,29,10,16,24.20
2015,08,29,10,17,20.90
2015,08,29,10,18,30.60
2015,08,29,10,19,16.10
2015,08,29,10,20,14.50
2015,08,29,10,21,22.50
2015,08,29,10,22,30.60
2015,08,29,10,23,19.30
2015,08,29,10,24,20.90
2015,08,29,10,25,27.40
2015,08,29,10,26,29.00
2015,08,29,10,27,35.40
2015,08,29,10,28,32.20
2015,08,29,10,29,25.70
2015,08,29,10,30,32.20
2015,08,29,10,31,25.70
2015,08,29,10,32,24.20
2015,08,29,10,33,17.70
2015,08,29,10,34,17.70
2015,08,29,10,35,35.40
2015,08,29,10,36,37.00
2015,08,29,10,37,17.70
2015,08,29,10,38,33.80
2015,08,29,10,39,16.10
2015,08,29,10,40,27.40
2015,08,29,10,41,35.40
2015,08,29,10,42,33.80
2015,08,29,10,43,33.80
2015,08,29,10,44,37.00
2015,08,29,10,45,30.60
2015,08,29,10,46,33.80
2015,08,29,10,47,33.80
2015,08,29,10,48,27.40
2015,08,29,10,49,35.40
2015,08,29,10,50,33.80
2015,08,29,10,51,27.40
2015,08,29,10,52,20.90
2015,08,29,10,53,40.20
2015,08,29,10,54,45.10
2015,08,29,10,55,45.10
2015,08,29,10,56,48.30
2015,08,29,10,57,29.00
2015,08,29,10,58,41.80
2015,08,29,10,59,48.30
2015,08,29,11,00,35.40
2015,08,29,11,01,51.50
2015,08,29,11,02,43.50
2015,08,29,11,03,40.20
2015,08,29,11,04,33.80
2015,08,29,11,05,38.60
2015,08,29,11,06,25.70
2015,08,29,11,07,43.50
2015,08,29,11,08,38.60
2015,08,29,11,09,22.50
2015,08,29,11,10,24.20
2015,08,29,11,11,38.60
2015,08,29,11,12,40.20
2015,08,29,11,13,32.20
2015,08,29,11,14,41.80
2015,08,29,11,15,41.80
2015,08,29,11,16,57.90
2015,08,29,11,17,35.40
2015,08,29,11,18,25.70
2015,08,29,11,19,35.40
2015,08,29,11,20,38.60
2015,08,29,11,21,45.10
2015,08,29,11,22,30.60
2015,08,29,11,23,30.60
2015,08,29,11,24,35.40
2015,08,29,11,25,37.00
2015,08,29,11,26,38.60
2015,08,29,11,27,24.20
2015,08,29,11,28,24.20
2015,08,29,11,29,35.40
2015,08,29,11,30,38.60
2015,08,29,11,31,32.20
2015,08,29,11,32,33.80
2015,08,29,11,33,33.80
2015,08,29,11,34,19.30
2015,08,29,11,35,24.20
2015,08,29,11,36,27.40
2015,08,29,11,37,25.70
2015,08,29,11,38,29.00
2015,08,29,11,39,32.20
2015,08,29,11,40,32.20
2015,08,29,11,41,19.30
2015,08,29,11,42,24.20
2015,08,29,11,43,30.60
2015,08,29,11,44,37.00
2015,08,29,11,45,38.60
2015,08,29,11,46,33.80
2015,08,29,11,47,17.70
2015,08,29,11,48,16.10
2015,08,29,11,49,22.50
2015,08,29,11,50,24.20
2015,08,29,11,51,22.50
2015,08,29,11,52,20.90
2015,08,29,11,53,19.30
2015,08,29,11,54,27.40
2015,08,29,11,55,27.40
2015,08,29,11,56,19.30
2015,08,29,11,57,24.20
2015,08,29,11,58,22.50
2015,08,29,11,59,19.30
2015,08,29,12,00,17.70
2015,08,29,12,01,11.30
2015,08,29,12,02,30.60
2015,08,29,12,03,22.50
2015,08,29,12,04,29.00
2015,08,29,12,05,19.30
2015,08,29,12,06,22.50
2015,08,29,12,07,22.50
2015,08,29,12,08,14.50
2015,08,29,12,09,25.70
2015,08,29,12,10,22.50
2015,08,29,12,11,25.70
2015,08,29,12,12,22.50
2015,08,29,12,13,19.30
2015,08,29,12,14,22.50
2015,08,29,12,15,30.60
2015,08,29,12,16,20.90
2015,08,29,12,17,19.30
2015,08,29,12,18,11.30
2015,08,29,12,19,19.30
2015,08,29,12,20,16.10
2015,08,29,12,21,12.90
2015,08,29,12,22,4.80
2015,08,29,12,23,6.40
2015,08,29,12,24,4.80
2015,08,29,12,25,4.80
2015,08,29,12,26,4.80
2015,08,29,12,27,6.40
2015,08,29,12,28,3.20
2015,08,29,12,29,9.60
2015,08,29,12,30,8.10
2015,08,29,12,31,8.10
2015,08,29,12,32,11.30
2015,08,29,12,33,8.10
2015,08,29,12,34,6.40
2015,08,29,12,35,1.60
2015,08,29,12,36,1.60
2015,08,29,12,37,4.80
2015,08,29,12,38,1.60
2015,08,29,12,39,4.80
2015,08,29,12,40,3.20
2015,08,29,12,41,3.20
2015,08,29,12,42,6.40
2015,08,29,12,43,4.80
2015,08,29,12,44,1.60
2015,08,29,12,46,1.60
2015,08,29,12,47,4.80
2015,08,29,12,48,6.40
2015,08,29,12,49,8.10
2015,08,29,12,50,4.80
2015,08,29,12,51,9.60
2015,08,29,12,52,11.30
2015,08,29,12,53,8.10
2015,08,29,12,54,8.10
2015,08,29,12,55,14.50
2015,08,29,12,56,11.30
2015,08,29,12,57,14.50
2015,08,29,12,58,9.60
2015,08,29,12,59,6.40
2015,08,29,13,00,8.10
2015,08,29,13,01,4.80
2015,08,29,13,02,9.60
2015,08,29,13,03,8.10
2015,08,29,13,04,6.40
2015,08,29,13,05,3.20
2015,08,29,13,06,3.20
2015,08,29,13,07,1.60
2015,08,29,13,09,1.60
2015,08,29,13,11,1.60
2015,08,29,13,12,6.40
2015,08,29,13,13,4.80
2015,08,29,13,14,3.20
2015,08,29,13,15,4.80
2015,08,29,13,16,3.20
2015,08,29,13,17,3.20
2015,08,29,13,22,1.60
2015,08,29,13,25,1.60
2015,08,29,13,26,1.60
2015,08,29,13,27,1.60
2015,08,29,13,28,4.80
2015,08,29,13,29,4.80
2015,08,29,13,30,6.40
2015,08,29,13,32,1.60
2015,08,29,13,33,6.40
2015,08,29,13,34,3.20
2015,08,29,13,35,1.60
2015,08,29,13,36,3.20
2015,08,29,13,37,4.80
2015,08,29,13,38,3.20
2015,08,29,13,39,1.60
2015,08,29,13,40,4.80
2015,08,29,13,41,1.60
2015,08,29,13,42,4.80
2015,08,29,13,43,9.60
2015,08,29,13,44,14.50
2015,08,29,13,45,12.90
2015,08,29,13,46,8.10
2015,08,29,13,47,9.60
2015,08,29,13,48,9.60
2015,08,29,13,49,9.60
2015,08,29,13,50,9.60
2015,08,29,13,51,16.10
2015,08,29,13,52,11.30
2015,08,29,13,53,16.10
2015,08,29,13,54,27.40
2015,08,29,13,55,29.00
2015,08,29,13,56,17.70
2015,08,29,13,57,16.10
2015,08,29,13,58,17.70
2015,08,29,13,59,14.50
2015,08,29,14,00,25.70
2015,08,29,14,01,20.90
2015,08,29,14,02,38.60
2015,08,29,14,03,38.60
2015,08,29,14,04,37.00
2015,08,29,14,05,41.80
2015,08,29,14,06,40.20
2015,08,29,14,07,43.50
2015,08,29,14,08,37.00
2015,08,29,14,09,46.70
2015,08,29,14,10,41.80
2015,08,29,14,11,43.50
2015,08,29,14,12,40.20
2015,08,29,14,13,45.10
2015,08,29,14,14,30.60
2015,08,29,14,15,45.10
2015,08,29,14,16,37.00
2015,08,29,14,17,38.60
2015,08,29,14,18,45.10
2015,08,29,14,19,20.90
2015,08,29,14,20,19.30
2015,08,29,14,21,38.60
2015,08,29,14,22,32.20
2015,08,29,14,23,27.40
2015,08,29,14,24,32.20
2015,08,29,14,25,32.20
2015,08,29,14,26,24.20
2015,08,29,14,27,27.40
2015,08,29,14,28,22.50
2015,08,29,14,29,32.20
2015,08,29,14,30,27.40
2015,08,29,14,31,38.60
2015,08,29,14,32,35.40
2015,08,29,14,33,40.20
2015,08,29,14,34,41.80
2015,08,29,14,35,25.70
2015,08,29,14,36,33.80
2015,08,29,14,37,35.40
2015,08,29,14,38,41.80
2015,08,29,14,39,38.60
2015,08,29,14,40,30.60
2015,08,29,14,41,29.00
2015,08,29,14,42,38.60
2015,08,29,14,43,35.40
2015,08,29,14,44,22.50
2015,08,29,14,45,27.40
2015,08,29,14,46,33.80
2015,08,29,14,47,40.20
2015,08,29,14,48,30.60
2015,08,29,14,49,27.40
2015,08,29,14,50,30.60
2015,08,29,14,51,19.30
2015,08,29,14,52,40.20
2015,08,29,14,53,40.20
2015,08,29,14,54,35.40
2015,08,29,14,55,37.00
2015,08,29,14,56,38.60
2015,08,29,14,57,30.60
2015,08,29,14,58,17.70
2015,08,29,14,59,40.20
2015,08,29,15,00,29.00
2015,08,29,15,01,40.20
2015,08,29,15,02,30.60
2015,08,29,15,03,22.50
2015,08,29,15,04,27.40
2015,08,29,15,05,29.00
2015,08,29,15,06,29.00
2015,08,29,15,07,24.20
2015,08,29,15,08,25.70
2015,08,29,15,09,20.90
2015,08,29,15,10,20.90
2015,08,29,15,11,24.20
2015,08,29,15,12,12.90
2015,08,29,15,13,22.50
2015,08,29,15,14,19.30
2015,08,29,15,15,17.70
2015,08,29,15,16,19.30
2015,08,29,15,17,25.70
2015,08,29,15,18,30.60
2015,08,29,15,19,19.30
2015,08,29,15,20,8.10
2015,08,29,15,21,11.30
2015,08,29,15,22,19.30
2015,08,29,15,23,20.90
2015,08,29,15,24,9.60
2015,08,29,15,25,11.30
2015,08,29,15,26,8.10
2015,08,29,15,27,19.30
2015,08,29,15,28,17.70
2015,08,29,15,29,22.50
2015,08,29,15,30,17.70
2015,08,29,15,31,20.90
2015,08,29,15,32,19.30
2015,08,29,15,33,17.70
2015,08,29,15,34,19.30
2015,08,29,15,35,19.30
2015,08,29,15,36,9.60
2015,08,29,15,37,19.30
2015,08,29,15,38,22.50
2015,08,29,15,39,24.20
2015,08,29,15,40,25.70
2015,08,29,15,41,14.50
2015,08,29,15,42,19.30
2015,08,29,15,43,25.70
2015,08,29,15,44,22.50
2015,08,29,15,45,25.70
2015,08,29,15,46,24.20
2015,08,29,15,47,16.10
2015,08,29,15,48,8.10
2015,08,29,15,49,22.50
2015,08,29,15,50,8.10
2015,08,29,15,51,9.60
2015,08,29,15,52,12.90
2015,08,29,15,53,16.10
2015,08,29,15,54,9.60
2015,08,29,15,55,9.60
2015,08,29,15,56,4.80
2015,08,29,15,58,6.40
2015,08,29,15,59,8.10
2015,08,29,16,00,9.60
2015,08,29,16,01,4.80
2015,08,29,16,02,6.40
2015,08,29,16,03,1.60
2015,08,29,16,05,3.20
2015,08,29,16,06,3.20
2015,08,29,16,07,4.80
2015,08,29,16,08,6.40
2015,08,29,16,09,3.20
2015,08,29,16,10,3.20
2015,08,29,16,11,4.80
2015,08,29,16,12,4.80
2015,08,29,16,13,4.80
2015,08,29,16,14,6.40
2015,08,29,16,15,1.60
2015,08,29,16,16,3.20
2015,08,29,16,19,1.60
2015,08,29,16,21,1.60
2015,08,29,16,23,1.60
2015,08,29,16,24,3.20
2015,08,29,16,27,3.20
2015,08,29,16,28,3.20
2015,08,29,16,29,8.10
2015,08,29,16,30,4.80
2015,08,29,16,31,8.10
2015,08,29,16,32,6.40
2015,08,29,16,33,3.20
2015,08,29,16,34,3.20
2015,08,29,16,35,4.80
2015,08,29,16,36,3.20
2015,08,29,16,38,1.60
2015,08,29,16,39,1.60
2015,08,29,16,41,4.80
2015,08,29,16,42,3.20
2015,08,29,16,43,4.80
2015,08,29,16,44,4.80
2015,08,29,16,45,3.20
2015,08,29,16,46,6.40
2015,08,29,16,47,3.20
2015,08,29,16,48,4.80
2015,08,29,16,49,6.40
2015,08,29,16,50,6.40
2015,08,29,16,51,6.40
2015,08,29,16,52,3.20
2015,08,29,16,53,4.80
2015,08,29,16,54,1.60
2015,08,29,16,55,1.60
2015,08,29,16,59,4.80
2015,08,29,17,00,8.10
2015,08,29,17,01,8.10
2015,08,29,17,02,4.80
2015,08,29,17,04,4.80
2015,08,29,17,05,4.80
2015,08,29,17,06,4.80
2015,08,29,17,07,3.20
2015,08,29,17,08,1.60
2015,08,29,17,09,3.20
2015,08,29,17,10,4.80
2015,08,29,17,11,4.80
2015,08,29,17,12,1.60
2015,08,29,17,13,1.60
2015,08,29,17,14,3.20
2015,08,29,17,15,1.60
2015,08,29,17,16,1.60
2015,08,29,17,17,1.60
2015,08,29,17,18,1.60
2015,08,29,17,22,1.60
2015,08,29,17,24,1.60
2015,08,29,17,29,1.60
2015,08,29,17,36,1.60
2015,08,29,17,38,3.20
2015,08,29,17,39,1.60
2015,08,29,17,40,1.60
2015,08,29,17,41,3.20
2015,08,29,17,42,4.80
2015,08,29,17,43,3.20
2015,08,29,17,44,1.60
2015,08,29,17,47,1.60
2015,08,29,17,48,3.20
2015,08,29,17,49,4.80
2015,08,29,17,50,1.60
2015,08,29,17,51,4.80
2015,08,29,17,52,6.40
2015,08,29,17,53,8.10
2015,08,29,17,54,8.10
2015,08,29,17,55,6.40
2015,08,29,17,56,6.40
2015,08,29,17,57,4.80
2015,08,29,17,59,1.60
2015,08,29,18,00,6.40
2015,08,29,18,01,6.40
2015,08,29,18,02,6.40
2015,08,29,18,03,8.10
2015,08,29,18,04,8.10
2015,08,29,18,05,8.10
2015,08,29,18,06,8.10
2015,08,29,18,07,6.40
2015,08,29,18,08,6.40
2015,08,29,18,09,6.40
2015,08,29,18,10,4.80
2015,08,29,18,11,6.40
2015,08,29,18,12,14.50
2015,08,29,18,13,16.10
2015,08,29,18,14,9.60
2015,08,29,18,15,4.80
2015,08,29,18,16,8.10
2015,08,29,18,17,14.50
2015,08,29,18,18,22.50
2015,08,29,18,19,16.10
2015,08,29,18,20,9.60
2015,08,29,18,21,9.60
2015,08,29,18,22,9.60
2015,08,29,18,23,9.60
2015,08,29,18,24,6.40
2015,08,29,18,25,6.40
2015,08,29,18,26,4.80
2015,08,29,18,27,4.80
2015,08,29,18,28,8.10
2015,08,29,18,29,4.80
2015,08,29,18,30,4.80
2015,08,29,18,31,6.40
2015,08,29,18,32,8.10
2015,08,29,18,33,6.40
2015,08,29,18,34,1.60
2015,08,29,18,35,1.60
2015,08,29,18,38,4.80
2015,08,29,18,39,4.80
2015,08,29,18,40,4.80
2015,08,29,18,41,1.60
2015,08,29,18,42,1.60
2015,08,29,18,43,4.80
2015,08,29,18,44,1.60
2015,08,29,18,45,3.20
2015,08,29,18,46,4.80
2015,08,29,18,47,4.80
2015,08,29,18,48,4.80
2015,08,29,18,50,3.20
2015,08,29,18,51,1.60
2015,08,29,18,54,1.60
2015,08,29,18,55,1.60
2015,08,29,18,56,1.60
2015,08,29,18,57,1.60
2015,08,29,18,58,4.80
2015,08,29,18,59,3.20
2015,08,29,19,00,3.20
2015,08,29,19,01,1.60
2015,08,29,19,02,4.80
2015,08,29,19,04,1.60
2015,08,29,19,05,6.40
2015,08,29,19,06,4.80
2015,08,29,19,07,3.20
2015,08,29,19,08,4.80
2015,08,29,19,09,1.60
2015,08,29,19,11,3.20
2015,08,29,19,12,3.20
2015,08,29,19,13,3.20
2015,08,29,19,14,1.60
2015,08,29,19,15,1.60
2015,08,29,19,16,4.80
2015,08,29,19,17,3.20
2015,08,29,19,18,1.60
2015,08,29,19,19,3.20
2015,08,29,19,20,3.20
2015,08,29,19,21,1.60
2015,08,29,19,22,1.60
2015,08,29,19,24,1.60
2015,08,29,19,25,3.20
2015,08,29,19,26,1.60
2015,08,29,19,29,1.60
2015,08,29,19,37,1.60
2015,08,29,19,41,1.60
2015,08,29,19,43,1.60
2015,08,29,20,19,1.60